Omaha, IA

4:02 PM CST on November 11, 2019 (GMT -0600)
Eppley Airfield

Weather History for KOMA - September, 2019

Change the Weather History Date:

Saturday, September 14, 2019

  Actual Average Record
Temperature  
Mean Temperature 74 °F 67 °F  
Max Temperature 86 °F 78 °F 98 °F (1939)
Min Temperature 61 °F 55 °F 38 °F (1974)
Degree Days  
Heating Degree Days 0 2  
Month to date heating degree days 0 20  
Since 1 July heating degree days 0 28  
Cooling Degree Days 8 4  
Month to date cooling degree days 120 77  
Year to date cooling degree days 1256 1057  
Growing Degree Days 24 (Base 50)    
Moisture  
Dew Point 64 °F    
Average Humidity 72    
Maximum Humidity 86    
Minimum Humidity 59    
Precipitation  
Precipitation 0.05 in 0.09 in 2.21 in (1874)
Month to date precipitation 0.30 1.36  
Year to date precipitation 25.60 24.47  
Snow  
Snow 0.00 in 0.00 in - ()
Month to date snowfall 0.0 0.0  
Since 1 July snowfall 0.0 0.0  
Since 1 September snowfall 0.0 0.0  
Snow Depth 0.00 in    
Sea Level Pressure  
Sea Level Pressure 30.02 in    
Wind  
Wind Speed 10 mph ()    
Max Wind Speed 23 mph    
Max Gust Speed 30 mph    
Visibility 10.0 miles    
Events Rain , Thunderstorm    
T = Trace of Precipitation, MM = Missing Value Source: Averaged Metar Reports

Daily Weather History Graph

Daily Weather History Graph

Search for Another Location

Airport or City:

Astronomy

Sep. 14, 2019 Rise Set
Actual Time 7:02 AM CDT 7:34 PM CDT
Civil Twilight 6:35 AM CDT 8:02 PM CDT
Nautical Twilight 6:02 AM CDT 8:35 PM CDT
Astronomical Twilight 5:28 AM CDT 9:08 PM CDT
Moon 8:16 PM CDT (9/14) 7:16 AM CDT (9/14)
Length of Visible Light 13h 27m
Length of Day
12h 32m
Full, 100% of the Moon is Illuminated
Sep 14
Full
Sep 21
Last Quarter
Sep 28
New
Oct 5
First Quarter
Oct 13
Full

Hourly Weather History & Observations

Time (CDT) Temp. Heat Index Dew Point Humidity Pressure Visibility Wind Dir Wind Speed Gust Speed Precip Events Conditions
12:52 AM 68.0 °F - 57.9 °F 70% 30.10 in 10.0 mi South 9.2 mph - N/A   Clear
1:52 AM 64.9 °F - 57.9 °F 78% 30.11 in 10.0 mi SSE 10.4 mph - N/A   Clear
2:52 AM 64.9 °F - 57.0 °F 75% 30.11 in 10.0 mi SSE 9.2 mph - N/A   Scattered Clouds
3:52 AM 62.1 °F - 57.0 °F 84% 30.11 in 10.0 mi SSE 9.2 mph - N/A   Scattered Clouds
4:52 AM 62.1 °F - 57.0 °F 84% 30.10 in 10.0 mi SSE 9.2 mph - N/A   Scattered Clouds
5:52 AM 62.1 °F - 57.9 °F 86% 30.09 in 10.0 mi SSE 10.4 mph - N/A   Mostly Cloudy
6:52 AM 63.0 °F - 57.9 °F 84% 30.09 in 10.0 mi SSE 10.4 mph - N/A   Mostly Cloudy
7:52 AM 66.0 °F - 59.0 °F 78% 30.08 in 10.0 mi SSE 12.7 mph - N/A   Mostly Cloudy
8:52 AM 68.0 °F - 59.0 °F 73% 30.07 in 10.0 mi SSE 15.0 mph - N/A   Mostly Cloudy
9:52 AM 69.1 °F - 60.1 °F 73% 30.07 in 10.0 mi SSE 9.2 mph - N/A   Mostly Cloudy
10:09 AM 69.1 °F - 60.1 °F 73% 30.07 in 10.0 mi SSE 11.5 mph - 0.00 in Rain , Thunderstorm Light Thunderstorms and Rain
10:52 AM 66.9 °F - 62.1 °F 84% 30.09 in 10.0 mi ENE 3.5 mph - 0.03 in Rain , Thunderstorm Light Thunderstorms and Rain
11:21 AM 70.0 °F - 63.0 °F 78% 30.08 in 10.0 mi SE 12.7 mph - 0.02 in Thunderstorm Mostly Cloudy
11:33 AM 73.0 °F - 63.0 °F 71% 30.07 in 10.0 mi SSE 13.8 mph - 0.02 in   Mostly Cloudy
11:52 AM 75.0 °F - 63.0 °F 66% 30.05 in 10.0 mi SE 13.8 mph - 0.02 in   Mostly Cloudy
12:52 PM 80.1 °F 82.1 °F 66.0 °F 62% 30.02 in 10.0 mi SSE 16.1 mph - N/A   Scattered Clouds
1:52 PM 82.9 °F 85.8 °F 68.0 °F 60% 29.99 in 10.0 mi South 17.3 mph - N/A   Scattered Clouds
2:52 PM 84.9 °F 88.8 °F 69.1 °F 59% 29.96 in 10.0 mi South 17.3 mph 23.0 mph N/A   Scattered Clouds
3:52 PM 84.9 °F 88.8 °F 69.1 °F 59% 29.95 in 10.0 mi South 19.6 mph 25.3 mph N/A   Mostly Cloudy
4:52 PM 84.9 °F 88.8 °F 69.1 °F 59% 29.94 in 10.0 mi South 16.1 mph 25.3 mph N/A   Mostly Cloudy
5:52 PM 84.9 °F 88.8 °F 69.1 °F 59% 29.92 in 10.0 mi South 17.3 mph - N/A   Mostly Cloudy
6:52 PM 84.0 °F 88.4 °F 70.0 °F 63% 29.91 in 10.0 mi South 11.5 mph - N/A   Scattered Clouds
7:52 PM 81.0 °F 84.4 °F 70.0 °F 69% 29.91 in 10.0 mi SSE 10.4 mph - N/A   Mostly Cloudy
8:52 PM 80.1 °F 83.6 °F 71.1 °F 74% 29.92 in 10.0 mi South 10.4 mph - N/A   Scattered Clouds
10:52 PM 79.0 °F - 71.1 °F 77% 29.94 in 10.0 mi SSE 9.2 mph - N/A   Scattered Clouds
11:21 PM 79.0 °F - 71.1 °F 77% 29.96 in 10.0 mi SSE 9.2 mph - N/A Thunderstorm Thunderstorm
11:52 PM 79.0 °F - 71.1 °F 77% 29.94 in 10.0 mi South 13.8 mph - N/A Thunderstorm Thunderstorm